| time (UTC) | temp F | wind direction | speed MPH | gust MPH | rain 1hr in | rain 24hr in | rain mn in | humidity % | barometer mb |
| 20260831033005 | 61 | 191 | 1.0 | 2.0 | 0.00 | 0.00 | 0.00 | 73 | 1015.5 |
| 20260831032009 | 62 | 193 | 0.0 | 0.0 | 0.00 | 0.00 | 0.00 | 68 | 1015.6 |
| 20260831031013 | 62 | 63 | 0.0 | 1.0 | 0.00 | 0.00 | 0.00 | 70 | 1015.7 |
| 20260831025022 | 61 | 174 | 0.0 | 2.0 | 0.00 | 0.00 | 0.00 | 72 | 1015.7 |
| 20260831024026 | 62 | 160 | 1.0 | 2.0 | 0.00 | 0.00 | 0.00 | 73 | 1015.9 |
| 20260831023030 | 62 | 125 | 0.0 | 1.0 | 0.00 | 0.00 | 0.00 | 67 | 1015.9 |
| 20260831022034 | 62 | 315 | 1.0 | 1.0 | 0.00 | 0.00 | 0.00 | 67 | 1015.9 |
| 20260831021038 | 62 | 249 | 0.0 | 1.0 | 0.00 | 0.00 | 0.00 | 67 | 1016.0 |
| 20260831020043 | 62 | 225 | 0.0 | 0.0 | 0.00 | 0.00 | 0.00 | 67 | 1016.1 |
| 20260831015047 | 62 | 233 | 0.0 | 0.0 | 0.00 | 0.00 | 0.00 | 67 | 1016.1 |
| 20260831014051 | 62 | 225 | 0.0 | 0.0 | 0.00 | 0.00 | 0.00 | 67 | 1016.2 |
| 20260831013056 | 62 | 230 | 0.0 | 0.0 | 0.00 | 0.00 | 0.00 | 66 | 1016.2 |
| 20260831012100 | 63 | 214 | 0.0 | 1.0 | 0.00 | 0.00 | 0.00 | 66 | 1016.1 |
| 20260831011104 | 63 | 132 | 1.0 | 2.0 | 0.00 | 0.00 | 0.00 | 66 | 1016.3 |
| 20260831010108 | 64 | 310 | 3.0 | 5.0 | 0.00 | 0.00 | 0.00 | 66 | 1016.2 |
| 20260831005112 | 64 | 312 | 4.0 | 5.0 | 0.00 | 0.00 | 0.00 | 65 | 1016.3 |
| 20260831004117 | 64 | 307 | 2.0 | 4.0 | 0.00 | 0.00 | 0.00 | 64 | 1016.4 |
| 20260831003121 | 65 | 314 | 2.0 | 4.0 | 0.00 | 0.00 | 0.00 | 64 | 1016.4 |
| 20260831002125 | 65 | 310 | 3.0 | 4.0 | 0.00 | 0.00 | 0.00 | 64 | 1016.4 |
| 20260831001130 | 65 | 311 | 3.0 | 5.0 | 0.00 | 0.00 | 0.00 | 64 | 1016.4 |
| 20260831000134 | 65 | 310 | 4.0 | 6.0 | 0.00 | 0.00 | 0.00 | 64 | 1016.3 |
| 20260830235138 | 64 | 312 | 5.0 | 6.0 | 0.00 | 0.00 | 0.00 | 65 | 1016.3 |
| 20260830234142 | 64 | 311 | 3.0 | 5.0 | 0.00 | 0.00 | 0.00 | 64 | 1016.3 |
| 20260830233146 | 64 | 308 | 3.0 | 4.0 | 0.00 | 0.00 | 0.00 | 64 | 1016.3 |
| 20260830232151 | 64 | 305 | 1.0 | 3.0 | 0.00 | 0.00 | 0.00 | 62 | 1016.5 |
| 20260830231155 | 65 | 317 | 1.0 | 2.0 | 0.00 | 0.00 | 0.00 | 62 | 1016.5 |
| 20260830230159 | 65 | 310 | 3.0 | 4.0 | 0.00 | 0.00 | 0.00 | 63 | 1016.5 |
| 20260830225203 | 65 | 311 | 4.0 | 5.0 | 0.00 | 0.00 | 0.00 | 63 | 1016.5 |
| 20260830224208 | 65 | 313 | 4.0 | 5.0 | 0.00 | 0.00 | 0.00 | 62 | 1016.4 |
| 20260830223212 | 66 | 308 | 3.0 | 5.0 | 0.00 | 0.00 | 0.00 | 60 | 1016.4 |
| 20260830222216 | 67 | 298 | 3.0 | 6.0 | 0.00 | 0.00 | 0.00 | 59 | 1016.3 |
| 20260830221221 | 67 | 283 | 5.0 | 7.0 | 0.00 | 0.00 | 0.00 | 59 | 1016.4 |
| 20260830220225 | 67 | 294 | 5.0 | 8.0 | 0.00 | 0.00 | 0.00 | 59 | 1016.4 |
| 20260830215229 | 67 | 298 | 4.0 | 7.0 | 0.00 | 0.00 | 0.00 | 58 | 1016.3 |
| 20260830214233 | 68 | 293 | 4.0 | 7.0 | 0.00 | 0.00 | 0.00 | 58 | 1016.3 |
| 20260830213237 | 68 | 280 | 5.0 | 7.0 | 0.00 | 0.00 | 0.00 | 56 | 1016.3 |
| 20260830212242 | 68 | 284 | 6.0 | 9.0 | 0.00 | 0.00 | 0.00 | 57 | 1016.4 |
| 20260830211246 | 68 | 280 | 5.0 | 9.0 | 0.00 | 0.00 | 0.00 | 57 | 1016.4 |
| 20260830210250 | 68 | 287 | 4.0 | 6.0 | 0.00 | 0.00 | 0.00 | 57 | 1016.5 |
| 20260830205254 | 69 | 293 | 4.0 | 7.0 | 0.00 | 0.00 | 0.00 | 56 | 1016.4 |
| 20260830204258 | 69 | 298 | 3.0 | 7.0 | 0.00 | 0.00 | 0.00 | 55 | 1016.4 |
| 20260830203303 | 70 | 295 | 3.0 | 6.0 | 0.00 | 0.00 | 0.00 | 53 | 1016.2 |
| 20260830202307 | 71 | 280 | 4.0 | 7.0 | 0.00 | 0.00 | 0.00 | 52 | 1016.3 |
| 20260830201311 | 71 | 268 | 3.0 | 5.0 | 0.00 | 0.00 | 0.00 | 50 | 1016.4 |
| 20260830200315 | 71 | 267 | 3.0 | 6.0 | 0.00 | 0.00 | 0.00 | 51 | 1016.3 |
| 20260830195320 | 71 | 275 | 5.0 | 8.0 | 0.00 | 0.00 | 0.00 | 50 | 1016.3 |
| 20260830194324 | 71 | 273 | 5.0 | 7.0 | 0.00 | 0.00 | 0.00 | 51 | 1016.2 |
| 20260830193328 | 70 | 277 | 4.0 | 7.0 | 0.00 | 0.00 | 0.00 | 52 | 1016.2 |
| 20260830192332 | 70 | 277 | 4.0 | 6.0 | 0.00 | 0.00 | 0.00 | 52 | 1016.2 |
| 20260830191336 | 69 | 292 | 3.0 | 7.0 | 0.00 | 0.00 | 0.00 | 53 | 1016.2 |
| 20260830190341 | 69 | 296 | 2.0 | 5.0 | 0.00 | 0.00 | 0.00 | 52 | 1016.1 |
| 20260830185345 | 69 | 289 | 2.0 | 4.0 | 0.00 | 0.00 | 0.00 | 50 | 1016.0 |
| 20260830184349 | 69 | 300 | 1.0 | 2.0 | 0.00 | 0.00 | 0.00 | 49 | 1016.0 |
| 20260830183353 | 69 | 291 | 1.0 | 2.0 | 0.00 | 0.00 | 0.00 | 48 | 1015.9 |
| 20260830182358 | 70 | 288 | 0.0 | 1.0 | 0.00 | 0.00 | 0.00 | 47 | 1015.9 |
| 20260830181402 | 70 | 282 | 0.0 | 2.0 | 0.00 | 0.00 | 0.00 | 47 | 1015.7 |
| 20260830175410 | 71 | 280 | 0.0 | 1.0 | 0.00 | 0.00 | 0.00 | 48 | 1015.4 |
| 20260830174415 | 71 | 295 | 1.0 | 2.0 | 0.00 | 0.00 | 0.00 | 47 | 1015.4 |
| 20260830173419 | 72 | 297 | 1.0 | 2.0 | 0.00 | 0.00 | 0.00 | 46 | 1015.4 |
| 20260830172423 | 73 | 295 | 1.0 | 3.0 | 0.00 | 0.00 | 0.00 | 45 | 1015.3 |
| 20260830171427 | 74 | 239 | 0.0 | 2.0 | 0.00 | 0.00 | 0.00 | 44 | 1015.2 |
| 20260830170431 | 75 | 277 | 0.0 | 2.0 | 0.00 | 0.00 | 0.00 | 44 | 1015.2 |
| 20260830165436 | 76 | 291 | 1.0 | 2.0 | 0.00 | 0.00 | 0.00 | 43 | 1015.2 |
| 20260830164440 | 77 | 294 | 1.0 | 3.0 | 0.00 | 0.00 | 0.00 | 42 | 1015.1 |
| 20260830163444 | 79 | 273 | 3.0 | 5.0 | 0.00 | 0.00 | 0.00 | 41 | 1015.2 |
| 20260830162448 | 79 | 268 | 3.0 | 5.0 | 0.00 | 0.00 | 0.00 | 40 | 1015.2 |
| 20260830161453 | 80 | 267 | 3.0 | 5.0 | 0.00 | 0.00 | 0.00 | 39 | 1015.2 |
| 20260830160457 | 81 | 270 | 3.0 | 5.0 | 0.00 | 0.00 | 0.00 | 37 | 1015.1 |
| 20260830155501 | 83 | 258 | 3.0 | 6.0 | 0.00 | 0.00 | 0.00 | 35 | 1015.0 |
| 20260830154505 | 85 | 260 | 3.0 | 6.0 | 0.00 | 0.00 | 0.00 | 33 | 1015.1 |
| 20260830153509 | 86 | 267 | 5.0 | 12.0 | 0.00 | 0.00 | 0.00 | 32 | 1015.1 |
| 20260830152514 | 86 | 269 | 4.0 | 8.0 | 0.00 | 0.00 | 0.00 | 33 | 1015.2 |
| 20260830151518 | 86 | 249 | 4.0 | 9.0 | 0.00 | 0.00 | 0.00 | 32 | 1015.1 |
| 20260830150522 | 87 | 257 | 3.0 | 10.0 | 0.00 | 0.00 | 0.00 | 32 | 1015.3 |
| 20260830145526 | 86 | 228 | 4.0 | 8.0 | 0.00 | 0.00 | 0.00 | 34 | 1015.3 |
| 20260830144531 | 84 | 243 | 6.0 | 13.0 | 0.00 | 0.00 | 0.00 | 35 | 1015.3 |
| 20260830143535 | 87 | 261 | 6.0 | 15.0 | 0.00 | 0.00 | 0.00 | 32 | 1015.2 |
| 20260830142539 | 86 | 246 | 5.0 | 15.0 | 0.00 | 0.00 | 0.00 | 34 | 1015.4 |
| 20260830141543 | 87 | 266 | 6.0 | 13.0 | 0.00 | 0.00 | 0.00 | 32 | 1015.5 |
| 20260830140547 | 88 | 245 | 4.0 | 8.0 | 0.00 | 0.00 | 0.00 | 31 | 1015.6 |
| 20260830135552 | 86 | 262 | 7.0 | 11.0 | 0.00 | 0.00 | 0.00 | 31 | 1015.5 |
| 20260830134556 | 84 | 258 | 5.0 | 12.0 | 0.00 | 0.00 | 0.00 | 35 | 1015.5 |
| 20260830133600 | 84 | 236 | 4.0 | 7.0 | 0.00 | 0.00 | 0.00 | 36 | 1015.6 |
| 20260830132604 | 86 | 239 | 5.0 | 13.0 | 0.00 | 0.00 | 0.00 | 33 | 1015.7 |
| 20260830131608 | 84 | 224 | 6.0 | 15.0 | 0.00 | 0.00 | 0.00 | 37 | 1015.7 |
| 20260830130613 | 87 | 237 | 5.0 | 9.0 | 0.00 | 0.00 | 0.00 | 34 | 1015.9 |
| 20260830125617 | 87 | 239 | 5.0 | 13.0 | 0.00 | 0.00 | 0.00 | 35 | 1015.9 |
| 20260830124621 | 89 | 264 | 5.0 | 12.0 | 0.00 | 0.00 | 0.00 | 33 | 1015.7 |
| 20260830123625 | 89 | 272 | 5.0 | 12.0 | 0.00 | 0.00 | 0.00 | 33 | 1015.9 |
| 20260830122629 | 88 | 248 | 9.0 | 21.0 | 0.00 | 0.00 | 0.00 | 34 | 1015.9 |
| 20260830120638 | 88 | 235 | 6.0 | 14.0 | 0.00 | 0.00 | 0.00 | 36 | 1016.0 |
| 20260830115642 | 87 | 226 | 7.0 | 16.0 | 0.00 | 0.00 | 0.00 | 37 | 1016.0 |
| 20260830114646 | 87 | 232 | 9.0 | 23.0 | 0.00 | 0.00 | 0.00 | 37 | 1016.0 |
| 20260830113650 | 84 | 232 | 10.0 | 22.0 | 0.00 | 0.00 | 0.00 | 39 | 1016.0 |
| 20260830112655 | 87 | 234 | 7.0 | 15.0 | 0.00 | 0.00 | 0.00 | 37 | 1016.1 |
| 20260830110703 | 88 | 243 | 5.0 | 11.0 | 0.00 | 0.00 | 0.00 | 37 | 1016.3 |
| 20260830105707 | 86 | 245 | 6.0 | 11.0 | 0.00 | 0.00 | 0.00 | 39 | 1016.3 |
| 20260830104712 | 85 | 225 | 7.0 | 11.0 | 0.00 | 0.00 | 0.00 | 39 | 1016.3 |
| 20260830103716 | 84 | 238 | 7.0 | 15.0 | 0.00 | 0.00 | 0.00 | 41 | 1016.4 |
| 20260830102720 | 84 | 225 | 8.0 | 17.0 | 0.00 | 0.00 | 0.00 | 41 | 1016.5 |
| 20260830101724 | 83 | 227 | 11.0 | 27.0 | 0.00 | 0.00 | 0.00 | 42 | 1016.5 |
| 20260830100728 | 84 | 208 | 13.0 | 31.0 | 0.00 | 0.00 | 0.00 | 41 | 1016.5 |
| 20260830095733 | 84 | 216 | 10.0 | 17.0 | 0.00 | 0.00 | 0.00 | 43 | 1016.7 |
| 20260830094737 | 85 | 223 | 8.0 | 20.0 | 0.00 | 0.00 | 0.00 | 42 | 1016.6 |
| 20260830093741 | 84 | 231 | 9.0 | 17.0 | 0.00 | 0.00 | 0.00 | 41 | 1016.8 |
| 20260830092745 | 84 | 227 | 9.0 | 16.0 | 0.00 | 0.00 | 0.00 | 43 | 1016.8 |
| 20260830091749 | 84 | 238 | 8.0 | 15.0 | 0.00 | 0.00 | 0.00 | 43 | 1016.9 |
| 20260830090754 | 83 | 239 | 6.0 | 11.0 | 0.00 | 0.00 | 0.00 | 44 | 1016.8 |
| 20260830085758 | 83 | 230 | 7.0 | 19.0 | 0.00 | 0.00 | 0.00 | 45 | 1017.0 |
| 20260830083806 | 82 | 226 | 6.0 | 12.0 | 0.00 | 0.00 | 0.00 | 47 | 1017.1 |
| 20260830082810 | 80 | 212 | 8.0 | 16.0 | 0.00 | 0.00 | 0.00 | 46 | 1017.0 |
| 20260830081815 | 81 | 224 | 6.0 | 15.0 | 0.00 | 0.00 | 0.00 | 49 | 1017.1 |
| 20260830080819 | 81 | 226 | 6.0 | 13.0 | 0.00 | 0.00 | 0.00 | 49 | 1017.2 |
| 20260830074828 | 78 | 239 | 5.0 | 13.0 | 0.00 | 0.00 | 0.00 | 53 | 1017.2 |
| 20260830073831 | 79 | 225 | 6.0 | 11.0 | 0.00 | 0.00 | 0.00 | 51 | 1017.1 |
| 20260830072836 | 78 | 207 | 5.0 | 12.0 | 0.00 | 0.00 | 0.00 | 59 | 1017.2 |
| 20260830071840 | 76 | 191 | 4.0 | 10.0 | 0.00 | 0.00 | 0.00 | 61 | 1017.2 |
| 20260830070844 | 73 | 188 | 4.0 | 7.0 | 0.00 | 0.00 | 0.00 | 60 | 1017.2 |
| 20260830065848 | 72 | 184 | 4.0 | 8.0 | 0.00 | 0.00 | 0.00 | 64 | 1017.1 |
| 20260830064853 | 72 | 194 | 2.0 | 5.0 | 0.00 | 0.00 | 0.00 | 68 | 1017.1 |
| 20260830063857 | 69 | 171 | 3.0 | 4.0 | 0.00 | 0.00 | 0.00 | 65 | 1017.0 |
| 20260830061905 | 69 | 160 | 2.0 | 3.0 | 0.00 | 0.00 | 0.00 | 70 | 1017.0 |
| 20260830060910 | 66 | 129 | 2.0 | 3.0 | 0.00 | 0.00 | 0.00 | 71 | 1017.2 |
| 20260830055914 | 64 | 154 | 1.0 | 2.0 | 0.00 | 0.00 | 0.00 | 79 | 1017.1 |
| 20260830054918 | 63 | 168 | 1.0 | 2.0 | 0.00 | 0.00 | 0.00 | 77 | 1017.1 |
| 20260830053922 | 63 | 174 | 0.0 | 1.0 | 0.00 | 0.00 | 0.00 | 79 | 1017.0 |
| 20260830052927 | 63 | 123 | 1.0 | 3.0 | 0.00 | 0.00 | 0.00 | 83 | 1017.1 |
| 20260830051931 | 62 | 111 | 1.0 | 2.0 | 0.00 | 0.00 | 0.00 | 85 | 1017.0 |
| 20260830050935 | 62 | 117 | 1.0 | 2.0 | 0.00 | 0.00 | 0.00 | 85 | 1016.9 |
| 20260830045939 | 62 | 120 | 1.0 | 2.0 | 0.00 | 0.00 | 0.00 | 83 | 1016.9 |
| 20260830044943 | 62 | 125 | 1.0 | 2.0 | 0.00 | 0.00 | 0.00 | 80 | 1016.9 |
| 20260830043948 | 62 | 114 | 1.0 | 2.0 | 0.00 | 0.00 | 0.00 | 84 | 1016.8 |
| 20260830042952 | 61 | 108 | 1.0 | 2.0 | 0.00 | 0.00 | 0.00 | 85 | 1016.8 |
| 20260830041956 | 61 | 119 | 1.0 | 2.0 | 0.00 | 0.00 | 0.00 | 86 | 1016.8 |
| 20260830041000 | 61 | 125 | 1.0 | 2.0 | 0.00 | 0.00 | 0.00 | 85 | 1016.8 |
| 20260830040005 | 61 | 131 | 1.0 | 2.0 | 0.00 | 0.00 | 0.00 | 85 | 1016.8 |
| 20260830035009 | 61 | 103 | 1.0 | 2.0 | 0.00 | 0.00 | 0.00 | 85 | 1016.9 |
| 20260830034013 | 61 | 102 | 3.0 | 4.0 | 0.00 | 0.00 | 0.00 | 83 | 1016.8 |